Change the Weather History Date:

Wednesday, March 20, 2013

  Actual Average Record
Temperature  
Mean Temperature 69 °F 70 °F  
Max Temperature 77 °F 80 °F 97 °F (2006)
Min Temperature 60 °F 60 °F 38 °F (1914)
Degree Days  
Heating Degree Days 0 1  
Month to date heating degree days 22 33  
Since 1 July heating degree days 315 536  
Cooling Degree Days 4 6  
Month to date cooling degree days 91 99  
Year to date cooling degree days 312 240  
Growing Degree Days 20 (Base 50)    
Moisture  
Dew Point 65 °F    
Average Humidity 77    
Maximum Humidity 93    
Minimum Humidity 60    
Precipitation  
Precipitation T in 0.04 in 1.81 in (1940)
Month to date precipitation 0.27 0.72  
Year to date precipitation 1.75 3.07  
Sea Level Pressure  
Sea Level Pressure 29.98 in    
Wind  
Wind Speed 12 mph (NE)    
Max Wind Speed 29 mph    
Max Gust Speed 39 mph    
Visibility 9 miles    
Events Rain    
T = Trace of Precipitation, MM = Missing Value Source: NWS Daily Summary

Daily Weather History Graph

Daily Weather History Graph

Search for Another Location

Airport or City:

Trip Planner

Search our weather history database for the weather conditions in past years. The results will help you decide how hot, cold, wet, or windy it might be!

Date:

Astronomy

Mar. 20, 2013 Rise Set
Actual Time 7:33 AM CDT 7:41 PM CDT
Civil Twilight 7:10 AM CDT 8:04 PM CDT
Nautical Twilight 6:43 AM CDT 8:30 PM CDT
Astronomical Twilight 6:16 AM CDT 8:57 PM CDT
Moon 1:47 PM CDT (3/20) 2:43 AM CDT (3/20)
Length of Visible Light 12h 53m
Length of Day
12h 07m
First Quarter, 59% of the Moon is Illuminated
Mar 20
First Quarter
Mar 27
Full
Apr 2
Last Quarter
Apr 10
New
Apr 18
First Quarter

Hourly Weather History & Observations

Time (CDT) Temp. Dew Point Humidity Pressure Visibility Wind Dir Wind Speed Gust Speed Precip Events Conditions
12:09 AM 71.6 °F 69.8 °F 94% 29.84 in 8.0 mi ESE 6.9 mph - N/A   Mostly Cloudy
12:53 AM 72.0 °F 70.0 °F 93% 29.85 in 8.0 mi East 5.8 mph - N/A   Overcast
1:53 AM 73.9 °F 70.0 °F 87% 29.86 in 8.0 mi ESE 6.9 mph - N/A   Overcast
2:53 AM 73.0 °F 70.0 °F 90% 29.84 in 8.0 mi East 5.8 mph - N/A   Overcast
3:53 AM 72.0 °F 69.1 °F 91% 29.82 in 8.0 mi East 5.8 mph - N/A   Mostly Cloudy
4:20 AM 71.6 °F 69.8 °F 94% 29.82 in 7.0 mi ENE 6.9 mph - N/A   Scattered Clouds
4:29 AM 71.6 °F 69.8 °F 94% 29.83 in 7.0 mi NE 6.9 mph - N/A   Mostly Cloudy
4:53 AM 72.0 °F 70.0 °F 93% 29.83 in 8.0 mi NE 9.2 mph - N/A   Overcast
5:53 AM 72.0 °F 70.0 °F 93% 29.87 in 8.0 mi NNE 8.1 mph - N/A   Overcast
6:00 AM 73.4 °F 69.8 °F 88% 29.89 in 8.0 mi NNE 6.9 mph - N/A   Overcast
6:10 AM 73.4 °F 69.8 °F 88% 29.90 in 8.0 mi NNE 6.9 mph - N/A   Overcast
6:39 AM 73.4 °F 69.8 °F 88% 29.92 in 8.0 mi NE 9.2 mph 17.3 mph N/A   Overcast
6:53 AM 73.0 °F 70.0 °F 90% 29.93 in 7.0 mi NE 10.4 mph - N/A   Overcast
7:53 AM 73.0 °F 71.1 °F 93% 29.96 in 6.0 mi NE 12.7 mph - N/A   Overcast
8:53 AM 73.0 °F 70.0 °F 90% 30.00 in 7.0 mi NE 10.4 mph 19.6 mph N/A   Overcast
9:53 AM 73.0 °F 69.1 °F 87% 30.03 in 6.0 mi NNE 16.1 mph 24.2 mph N/A   Overcast
10:14 AM 71.6 °F 69.8 °F 94% 30.05 in 5.0 mi NNE 13.8 mph 23.0 mph 0.00 in   Overcast
10:53 AM 69.1 °F 64.0 °F 84% 30.06 in 9.0 mi NE 24.2 mph 38.0 mph 0.00 in Rain Light Rain
11:11 AM 69.8 °F 62.6 °F 78% 30.07 in 9.0 mi NE 23.0 mph 34.5 mph 0.00 in   Overcast
11:53 AM 71.1 °F 61.0 °F 70% 30.08 in 10.0 mi NE 21.9 mph 33.4 mph 0.00 in   Overcast
12:53 PM 71.1 °F 61.0 °F 70% 30.09 in 10.0 mi NE 19.6 mph 26.5 mph N/A   Overcast
1:42 PM 71.6 °F 60.8 °F 69% 30.07 in 10.0 mi NE 12.7 mph 21.9 mph N/A   Overcast
1:53 PM 72.0 °F 61.0 °F 68% 30.06 in 10.0 mi ENE 16.1 mph 24.2 mph N/A   Mostly Cloudy
2:53 PM 75.0 °F 61.0 °F 62% 30.05 in 10.0 mi NE 21.9 mph 28.8 mph N/A   Mostly Cloudy
3:44 PM 75.2 °F 60.8 °F 61% 30.04 in 10.0 mi NNE 20.7 mph 31.1 mph N/A   Mostly Cloudy
3:53 PM 73.9 °F 61.0 °F 64% 30.04 in 10.0 mi NE 19.6 mph 28.8 mph N/A   Mostly Cloudy
4:53 PM 73.0 °F 60.1 °F 64% 30.04 in 10.0 mi NE 17.3 mph 29.9 mph N/A   Overcast
5:06 PM 73.4 °F 60.8 °F 65% 30.04 in 10.0 mi ENE 17.3 mph 25.3 mph N/A   Overcast
5:53 PM 71.1 °F 59.0 °F 66% 30.05 in 10.0 mi NE 16.1 mph 25.3 mph N/A   Overcast
6:21 PM 69.8 °F 60.8 °F 73% 30.05 in 10.0 mi NE 18.4 mph 25.3 mph N/A   Overcast
6:53 PM 69.1 °F 60.1 °F 73% 30.06 in 10.0 mi NE 15.0 mph 26.5 mph N/A   Overcast
7:22 PM 68.0 °F 59.0 °F 73% 30.06 in 10.0 mi NE 15.0 mph 23.0 mph N/A   Overcast
7:53 PM 66.9 °F 59.0 °F 76% 30.05 in 10.0 mi NE 15.0 mph 24.2 mph N/A   Overcast
8:53 PM 66.9 °F 57.9 °F 73% 30.05 in 10.0 mi NE 12.7 mph 19.6 mph N/A   Overcast
9:53 PM 64.9 °F 57.9 °F 78% 30.06 in 10.0 mi NE 6.9 mph - N/A   Partly Cloudy
10:53 PM 63.0 °F 57.9 °F 84% 30.07 in 10.0 mi Calm Calm - N/A   Partly Cloudy
11:53 PM 62.1 °F 57.0 °F 84% 30.06 in 10.0 mi Calm Calm - N/A   Mostly Cloudy